SL-16 DEB, 39881

Orbit data source: Space-Track

SL-16 DEB, 39881 is space debris in LEO originally from a launch on Fri, 26 Mar 1993 UTC launched from the Tyuratam Missile And Space Complex (TTMTR). Debris objects in space refer to the collection of defunct objects orbiting the Earth. Examples of debris include non-operational satellites, rocket bodies, and fragments generated from explosions, collisions, or faulty payload assembly.

Loading next visibility...
Identifier
39881, 1993-016BF
Orbit
LEO
Country
Flag of CISCIS
Related business
Manufacturer
Unknown
Mission
Spacecraft
Bus & Motor
Unknown
Mass
Unknown
Launch date (UTC)
1993-03-26 (33 years ago)
Launch vehicle
Unknown
Launch site
Tyuratam Missile And Space Complex (TTMTR)
Object type
Payload
Rocket body
Debris
Shape & HBR
Unknown shape, 0.1 m
Radar Cross Section
Small (<0.1 m²)

Expand to show TLE details & history
Last TLE update: 6 days ago

TLE from 6 days ago
0 SL-16 DEB
1 39881U 93016BF  25284.01092245  .00001925  00000-0  10821-2 0  9993
2 39881  70.9867  27.0278 0122493 357.1443   2.8961 14.08001407562433
Epoch: 2025-10-11T00:15Z
TLE epoch observation values (Epoch: 2025-10-11T00:15:43.699Z)
Latitude
-0.00002°
Longitude
3.24717°
Altitude
779.976 km
Speed
7.51 km/s
True Right ascension
01h 48m 06s
True Declination
0° 00' 00"
Sunlit
Object was in full shadow at epoch
Visualization orbit readout
Latitude
Unknown
Longitude
Unknown
Altitude
Unknown
Speed
Unknown
Apparent Right ascension
Unknown
Apparent Declination
Unknown
Sunlit
N/A
Visualization observer readout
Local Sidereal Time
08:59:21
Azimuth
Unknown
Elevation
Unknown
Doppler factor
Unknown
Orbital elements
Apogee altitude
952.865 km
Perigee altitude
775.439 km
Semi-major axis
7,242.289 km
Eccentricity
0.01225
Inclination
70.9867°
RAAN
27.0278°
Arg. of periapsis
357.1443°
True anomaly
2.96812°
Mean anomaly
2.8961°
Eccentric anomaly
2.932°
Mean motion
3.52151 °/min
Orbital period
102.23 mins
BSTAR
0.0010821
Loading maneuver chart data...
Computing Atmospheric mass density...
Loading historical data...
Loading historical data...
Loading historical data...
Loading historical data...
Loading historical data...
Loading historical data...
Loading historical data...

Documentation

Showing up to 5 results
|